Lotnisko EPSD


Aktualna POGODA z lotniska w Goleniowie (EPSC)

EPSC 131500Z 10011KT 9000 FEW022 BKN030 03/00 Q0984

TAF EPSC 131130Z 1312/1412 13010KT 7000 BKN010 PROB40 TEMPO 1312/1324 4000 RADZ BR BKN005 TEMPO 1400/1412 3000 RADZ BR BKN004

Przed przylotem na lotnisko w Szczecinie-Dąbiu (EPSD) konieczne jest wcześniejsze uzyskanie zgody na lądowanie (PPR)

Znak ICAO: EPSD

Współrzędne lotniska: N532332 E0143802

Współrzędne ATZ: N532228 E0144207

ATZ lotniska: okrąg o promieniu 10km

Granice pionowe ATZ: GND/5500 ft (1676 m) AMSL

Łączność radiowa: Szczecin Radio na częstotliwości 122.2 MHz
Pas trawiasty: RWY 09R – 27L (900m x 50m)

Elewacja: 3 ft (1 m)

Pliki do wglądu lub pobrania:

Plik Opis Rozmiar pliku
pdf EPSD Szczecin Dąbie Dane opisowe
135 KB
pdf EPSD plan lotniska Drogi startowe w użyciu
198 KB
pdf EPSD krąd nadlotniskowy Zasady poruszania się po kręgu
100 KB
pdf Regulamin hangarowania Regulamin użytkowania hangaru Aeroklubu Szczecińskiego
108 KB